Home   Weather   Santa Cruz   Past weeks
Flag for USA

Past Weather in Santa Cruz, California, USA — Yesterday and Last 2 Weeks

Now
50 °F

Passing clouds.


Feels Like: 49 °F
Forecast: 64 / 52 °F
Wind: 3 mph from Northwest

Location: Watsonville Municipal Airport

Current Time: Jan 19, 2019 at 7:05:57 am

Latest Report: Jan 19, 2019 at 5:53 am


Visibility: 10 mi

Pressure: 30.35 "Hg

Humidity: 96%

Dew Point: 49 °F

Location of Santa CruzLocation

Past Weather in Santa Cruz — Graph

°F

Santa Cruz Temperature Yesterday

Maximum temperature yesterday: 64 °F (at 1:53 pm)
Minimum temperature yesterday: 50 °F (at 4:53 am)
Average temperature yesterday: 55 °F

High & Low Weather Summary for the Past Weeks

 TemperatureHumidityPressure
High64 °F (Jan 13, 1:53 pm)100% (Jan 4, 9:53 pm)30.39 "Hg (Jan 4, 9:53 pm)
Low33 °F (Jan 4, 6:53 am)47% (Jan 13, 2:53 pm)29.70 "Hg (Jan 15, 3:53 pm)
Average53 °F91%30.00 "Hg
* Reported Jan 4 5:53 am — Jan 19 5:53 am, Santa Cruz. Weather by CustomWeather, © 2019

Note: Actual official high and low records may vary slightly from our data, if they occured in-between our weather recording intervals... More about our weather records

Advertising

Santa Cruz Weather History for the Previous 24 Hours

Scroll right to see more
 ConditionsComfort  
Time TempWeatherWind HumidityBarometerVisibility
5:53 am
Sat, Jan 19
50 °FPassing clouds.3 mph96%30.35 "Hg10 mi
4:53 am49 °FOvercast.3 mph97%30.36 "Hg10 mi
3:53 am51 °FOvercast.3 mph96%30.36 "Hg10 mi
2:53 am51 °FOvercast.3 mph96%30.37 "Hg10 mi
1:53 am51 °FPartly cloudy.No wind96%30.37 "Hg10 mi
12:53 am52 °FOvercast.No wind93%30.38 "Hg10 mi
11:53 pm
Fri, Jan 18
51 °FPassing clouds.No wind96%30.39 "Hg10 mi
10:53 pm52 °FOvercast.3 mph93%30.38 "Hg10 mi
9:53 pm51 °FPassing clouds.No wind96%30.37 "Hg10 mi
8:53 pm53 °FPassing clouds.5 mph93%30.35 "Hg10 mi
7:53 pm53 °FClear.3 mph93%30.34 "Hg10 mi
6:53 pm55 °FPassing clouds.No wind90%30.34 "Hg10 mi
5:53 pm58 °FClear.5 mph78%30.32 "Hg10 mi
4:53 pm63 °FSunny.No wind56%30.31 "Hg10 mi
3:53 pm64 °FSunny.No wind54%30.30 "Hg10 mi
2:53 pm64 °FSunny.No wind52%30.29 "Hg10 mi
1:53 pm64 °FSunny.No wind52%30.29 "Hg10 mi
12:53 pm63 °FPartly sunny.5 mph58%30.30 "Hg10 mi
11:53 am61 °FPassing clouds.No wind62%30.33 "Hg10 mi
10:53 am59 °FOvercast.No wind75%30.34 "Hg10 mi
9:53 am56 °FOvercast.No wind84%30.34 "Hg10 mi
8:53 am54 °FOvercast.No wind86%30.33 "Hg10 mi
7:53 am51 °FOvercast.3 mph92%30.31 "Hg10 mi
Weather by CustomWeather, © 2019

See weather overview